Regional Weather Roundup
Issued by NWS

Home | Current Version | Previous Version | Graphics & Text | Print | Product List | Glossary On
Versions: 1 2 3 4 5 6 7 8 9 10 11 12 13 14 15 16 17 18 19 20 21 22 23 24 25 26 27
000
ASUS45 KBOI 231010
RWRID
WEATHER ROUNDUP FOR IDAHO
NATIONAL WEATHER SERVICE BOISE ID
400 AM MDT WED APR 23 2014

NOTE: "FAIR" INDICATES FEW OR NO CLOUDS BELOW 12000 FEET
WITH NO SIGNIFICANT WEATHER AND/OR OBSTRUCTIONS TO VISIBILITY

IDZ012-014-231100-
SOUTHWEST IDAHO


CITY           SKY/WX    TMP DP  RH WIND       PRES   REMARKS
BOISE          FAIR      34  28  79 S3        29.95R
CALDWELL       FAIR      36  23  60 NW6       29.98S WCI  31
MOUNTAIN HOME  FAIR      34  33  99 NW7       29.95R WCI  28
$$

IDZ016-017-231100-
SOUTHCENTRAL IDAHO


CITY           SKY/WX    TMP DP  RH WIND       PRES   REMARKS
BURLEY         FAIR      35  28  75 W20G29    29.87R WCI  24
JEROME         FAIR      34  29  82 SW17      29.90R WCI  23
TWIN FALLS     FAIR      36  27  69 SW13      29.92R WCI  27
$$

IDZ019>023-231100-
SOUTHEAST IDAHO


CITY           SKY/WX    TMP DP  RH WIND       PRES   REMARKS
IDAHO FALLS    CLOUDY    35  32  88 SW21G33   29.78R WCI  24
POCATELLO      PTCLDY    36  29  75 SW23      29.85R WCI  24
REXBURG        LGT SNOW  33  31  92 SW17      29.76R FOG     WCI  22
$$

IDZ006-010-011-018-031-032-231100-
CENTRAL IDAHO MOUNTAINS


CITY           SKY/WX    TMP DP  RH WIND       PRES   REMARKS
MCCALL         FAIR      23  20  88 CALM      29.88S
HAILEY         FAIR      36  12  38 NW9G20    29.81R WCI  29
STANLEY          N/A     21  16  81 CALM      29.87R
SALMON         FAIR      37  25  60 CALM      29.81S
CHALLIS        CLOUDY    34  18  52 W6        29.82R WCI  29
$$

IDZ002-004-006-007-026-231100-
NORTHERN IDAHO


CITY           SKY/WX    TMP DP  RH WIND       PRES   REMARKS
LEWISTON       FAIR      43  27  53 S7        29.90S
LOWELL         NOT AVBL
COEUR D`ALENE  FAIR      36  28  75 CALM      29.85R
MULLAN PASS    CLOUDY    25  21  86 VRB6G18   29.75R WCI  18
$$



USA.gov is the U.S. government's official web portal to all federal, state and local government web resources and services.